Regional Weather Roundup
Issued by NWS

Home | Current Version | Previous Version | Text Only | Print | Product List | Glossary Off
Versions: 1 2 3 4 5 6 7 8 9 10 11 12 13 14 15 16 17 18 19 20 21 22 23 24 25 26 27 28 29 30 31 32 33 34 35 36 37 38 39 40 41 42 43 44 45 46 47 48 49 50

000
ASUS43 KIND 261259
RWRIN

WEATHER ROUNDUP FOR INDIANA
NATIONAL WEATHER SERVICE INDIANAPOLIS IN
900 AM EDT MON SEP 26 2016

NOTE: "FAIR" INDICATES FEW OR NO CLOUDS BELOW 12,000 FEET WITH NO
SIGNIFICANT WEATHER AND/OR OBSTRUCTIONS TO VISIBILITY.

* - STATION DOES NOT REPORT WEATHER SUCH AS PRECIPITATION OR FOG.

+ - STATION NOT QUALITY CONTROLLED BY THE NATIONAL WEATHER SERVICE.
    USE DATA WITH CAUTION...ESPECIALLY DEWPOINT AND RELATIVE
    HUMIDITY OBSERVATIONS.

INZ001>003-010>013-019-020-261400-
NORTHWEST INDIANA

CITY           SKY/WX    TMP DP  RH WIND       PRES   REMARKS
GARY /AIRPORT/ PTSUNNY   61  52  72 W8        30.02R

$$

LMZ046-743>745-261400-
SOUTHERN LAKE MICHIGAN

STATION/POSITION TIME  TEMP    WIND        PRES    WAVE
                       AIR SEA DIR/SP/G            HT
                 (UTC) (F)     (DEG/KT/KT) (MB)    (FT)
BURNS HARBOR     1200   62     280/ 15/ 22 1015.9R
MICHIGAN CITY    1200   62     260/ 23/ 26   N/A
5NW MICH CITY    1200   64 67  290/ 16/ 21   N/A     5

$$

INZ004-005-014>016-021>024-261400-
NORTH CENTRAL INDIANA

CITY           SKY/WX    TMP DP  RH WIND       PRES   REMARKS
ELKHART        PTSUNNY  N/A N/A N/A W12       29.96S
GOSHEN         CLOUDY    59  55  87 W13       29.97F
SOUTH BEND     CLOUDY    58  56  93 W8        29.99R

$$

INZ006>009-017-018-025>027-261400-
NORTHEAST INDIANA

CITY           SKY/WX    TMP DP  RH WIND       PRES   REMARKS
ANGOLA *+        N/A     59  50  72 W6        29.94F
FORT WAYNE     LGT RAIN  59  57  93 W12       30.00R
KENDALLVILLE + CLOUDY    59  58  95 W14G21    29.96S

$$

INZ028-029-035-036-043>045-051>053-261400-
WEST CENTRAL INDIANA

CITY           SKY/WX    TMP DP  RH WIND       PRES   REMARKS
CRAWFORDSVL +  CLOUDY    56  56 100 W6        30.06S
GREENCASTLE +  CLOUDY    57  57 100 W5        30.07S FOG
LAFAYETTE      CLOUDY    57  57 100 W7        30.04S
TERRE HAUTE    LGT RAIN  59  56  89 NW6       30.08R

$$

INZ030>032-037>040-046>048-054>057-064-065-261400-
CENTRAL INDIANA

CITY           SKY/WX    TMP DP  RH WIND       PRES   REMARKS
ANDERSON       LGT RAIN  57  57 100 W6        30.04
INDIANAPOLIS   PTSUNNY   59  57  93 W12       30.07R
-EAGLE CREEK   CLOUDY    60  56  86 W10       30.06R
MT COMFORT *+  CLOUDY    57  55  94 NW7       30.05R
SHELBYVILLE    LGT RAIN  61  57  87 W8        30.04R

$$

INZ033-034-041-042-049-050-058-059-261400-
EAST CENTRAL INDIANA

CITY           SKY/WX    TMP DP  RH WIND       PRES   REMARKS
MUNCIE         LGT RAIN  60  57  89 W12       30.03R

$$

INZ060-061-067>069-081>083-085>088-261400-
SOUTHWEST INDIANA

CITY           SKY/WX    TMP DP  RH WIND       PRES   REMARKS
EVANSVILLE     LGT RAIN  61  58  90 CALM      30.12R FOG
HUNTINGBURG *+   N/A     61  55  82 NW8       30.12R

$$

INZ062-063-066-070>080-084-089>092-261400-
SOUTH CENTRAL AND SOUTHEAST INDIANA

CITY           SKY/WX    TMP DP  RH WIND       PRES   REMARKS
BLOOMINGTON    CLOUDY    59  56  89 NW10G17   30.08R
MADISON *+     CLOUDY    61  55  82 NW3       30.06R
SEYMOUR +      HVY RAIN  63  61  94 CALM      30.06R

$$





USA.gov is the U.S. government's official web portal to all federal, state and local government web resources and services.